Regional Weather Roundup
Issued by NWS Wakefield, VA

Home | Current Version | Previous Version | Text Only | Print | Product List | Glossary Off
Versions: 1 2 3 4 5 6 7 8 9 10 11 12 13 14 15 16 17 18 19 20 21 22 23 24 25 26 27 28 29 30 31 32 33 34 35 36 37 38 39 40 41 42 43 44 45 46 47 48 49 50

000
ASUS41 KAKQ 250214
RWRAKQ

REGIONAL WEATHER ROUNDUP
NATIONAL WEATHER SERVICE WAKEFIELD VA
900 PM EST FRI FEB 24 2017

Note: "fair" indicates few or no clouds below 12,000 feet with no
significant weather and/or obstructions to visibility. * = Denotes
station may not report precipitation (e.g., rain,snow,etc.),
thunder or fog.

VAZ042-051-052>054-056-250300-
NORTHERN VIRGINIA

CITY           SKY/WX    TMP DP  RH WIND       PRES   REMARKS
WASH NATIONAL  MOCLDY    62  57  83 S10       29.81R
DULLES         MOCLDY    65  54  67 SE10      29.79S
FORT BELVOIR   CLEAR     63  56  76 SE7       29.80S
QUANTICO       CLEAR     58  54  86 SW7       29.81S
FREDERICKSBRG* CLEAR     64  57  77 SE7       29.80S
STAFFORD*      CLEAR     62  56  81 SE6       29.84S
WARRENTON      CLEAR     66  49  53 SE5       29.79S
CULPEPER*      PTCLDY    61  52  72 CALM      29.79F
MANASSAS*        N/A     64  55  72 SE12      29.80S
LEESBURG*      PTCLDY    66  57  72 MISG      29.80S
WINCHESTER     PTCLDY    64  50  59 S9        29.75F
FRONT ROYAL*   MOCLDY    66  50  55 S6        29.75F
LURAY*         NOT AVBL
$$

VAZ048-049-060>072-079>083-250300-
CENTRAL AND SOUTH CENTRAL VIRGINIA

CITY           SKY/WX    TMP DP  RH WIND       PRES   REMARKS
RICHMOND       MOCLDY    65  58  78 S10       29.82S
CHESTERFIELD*  MOCLDY    61  41  48 SE7       29.84R
PETERSBURG*    CLEAR     63  56  77 CALM      29.84R
HANOVER        CLEAR     64  55  72 SE3       29.83S
TAPPAHANNOCK*  CLEAR     64  56  76 SE6       29.84S
QUINTON*       NOT AVBL
CHARLOTTSVILLE PTCLDY    66  52  60 S9        29.79F
GORDONSVILLE*  CLOUDY    61  53  73 CALM      29.79F
ORANGE*        PTCLDY    63  52  67 SE3       29.81S
LOUISA*        MOCLDY    70  57  64 SE5       29.80S
BUMPASS*       NOT AVBL
FARMVILLE*     PTCLDY    63  55  77 CALM      29.80S
CREWE*         NOT AVBL
FORT PICKETT*  NOT AVBL
CHASE CITY*    FAIR      59  56  88 CALM      29.82
CLARKSVILLE*   NOT AVBL
SOUTH HILL*    CLEAR     62  56  81 SE3       29.88S
LAWRENCEVILLE* FAIR      64  57  78 SE7       29.84R
EMPORIA*       CLEAR     64  57  77 SE6       29.86R
$$

VAZ088>098-250300-
SOUTHEAST VIRGINIA

CITY           SKY/WX    TMP DP  RH WIND       PRES   REMARKS
NORFOLK        CLEAR     64  57  78 S8        29.85S
VIRGINIA BEACH CLEAR     63  55  75 S10       29.85S
NORFOLK NAVAL  CLEAR     65  57  75 S5        29.87S
WEST POINT*    CLEAR     60  57  92 SE7       29.85F
SALUDA*        NOT AVBL
NEWPORT NEWS   CLEAR     65  59  81 S12       29.85F
LANGLEY AFB    CLEAR     62  59  88 S6        29.85S
FORT EUSTIS    CLEAR     64  58  82 SE10      29.82F
WILLIAMSBURG*  CLEAR     63  59  88 SE7       29.85S
HR EXEC AP*    FAIR      63  57  82 S6        29.85R
FRANKLIN*      CLEAR     63  57  81 S3        29.86S
US460-WAKEFLD  CLEAR     65  59  81 VRB3      29.84S
$$

VAZ020-022-025-037-045-250300-
WEST CENTRAL AND SOUTHWEST VIRGINIA

CITY           SKY/WX    TMP DP  RH WIND       PRES   REMARKS
STAUNTON*      CLEAR     63  50  63 S7        29.80F
WAYNESBORO*    NOT AVBL
HOT SPRINGS VA CLEAR     55  45  67 S12G21    29.84F
LYNCHBURG      CLEAR     61  51  70 S5        29.82S
DANVILLE       MOCLDY    66  54  65 VRB5      29.81S
SOUTH BOSTON*  NOT AVBL
MARTINSVILLE   CLEAR     55  49  79 CALM      29.83S
ROANOKE        PTCLDY    65  50  58 SE5       29.81F
BLACKSBURG     PTCLDY    62  51  67 SE5       29.84F
DUBLIN*        PTCLDY    61  51  70 SE3       29.82F
MARION*        CLEAR     63  51  63 CALM      29.82S
HILLSVILLE*    CLOUDY    60  51  74 S9G18     29.82F
RICHLANDS*     FAIR      62  48  60 S6        29.77R
WISE*          CLEAR     64  46  52 S12G17    29.77R
ABINGDON*      CLEAR     62  50  66 CALM      29.77R
$$

MDZ021>025-VAZ099-100-250300-
SOUTHERN MARYLAND AND THE DELMARVA PENINSULA

CITY           SKY/WX    TMP DP  RH WIND       PRES   REMARKS
PATUXENT RIVER PTCLDY    61  59  93 S10       29.83F
BAY BRIDGE APT CLEAR     61  57  88 S9        29.82S
LEONARDTOWN    CLEAR     59  55  88 SE7       29.85S
DOVER          CLEAR     60  60 100 S8        29.83F
GEORGETOWN     CLEAR     62  57  83 S10       29.86F
EASTON         CLEAR     64  59  82 S14G22    29.87S
CAMBRIDGE        N/A     63  57  82 S14G21    29.84S
SALISBURY      CLEAR     61  58  90 S7        29.86S
OCEAN CITY     CLEAR     53  51  93 VRB5      29.87F
WALLOPS ISLAND CLEAR     57  55  93 S10       29.88S
ACCOMACK*      CLEAR     61  56  85 S10       29.86F
$$

NCZ012>017-030>032-250300-
NORTH CENTRAL AND EASTERN NORTH CAROLINA

CITY           SKY/WX    TMP DP  RH WIND       PRES   REMARKS
ROANOKE RAPIDS FAIR      64  59  82 SE5       29.85S
RALEIGH        PTCLDY    65  53  65 SE6       29.83S
ELIZABETH CITY CLEAR     63  58  83 SE10      29.86F
AHOSKIE*         N/A     62  58  87 CALM      29.86S
EDENTON*       CLEAR     66  58  76 SE3       29.86S
CURRITUCK*     CLEAR     64  58  82 SE5       29.86F
KILL DEVIL HLS NOT AVBL
MANTEO         CLEAR     60  57  89 SE6       29.87F
CAPE HATTERAS  CLEAR     64  59  83 E5        29.86F
TARBORO*       NOT AVBL
GOLDSBORO      CLEAR     65  64  94 CALM      29.83S
WASHINGTON     CLEAR     60  57  89 CALM      29.85S
GREENVILLE     CLEAR     64  61  88 S3        29.88S
NEW BERN       CLEAR     65  60  84 SE3       29.85F
WILMINGTON     CLEAR     60  59  96 CALM      29.85S
$$

VAZ048-250300-
ELSEWHERE

CITY           SKY/WX    TMP DP  RH WIND       PRES   REMARKS
HARRISBURG PA  PTCLDY    61  54  77 SE9       29.77S
BALTIMORE      PTCLDY    62  60  93 S7        29.81S
ANNAPOLIS      CLEAR     57  55  93 S12       29.82S
ANDREWS AFB    CLEAR     61  57  85 SE9       29.81R
PHILADELPHIA   PTCLDY    62  57  83 S15       29.84F
HENDERSON NC   CLEAR     63  52  69 CALM      29.82F
GREENSBORO     PTCLDY    63  52  67 S5        29.81S
ROCKY MOUNT    CLEAR     65  60  84 S3        29.85R
$$

VAZ100-250300-
MARINE

STATION/POSITION TIME  TEMP    WIND        PRES    WAVE   SWELL
                       AIR SEA DIR/SP/G            HT/PER HT/PER
                 (UTC) (F)     (DEG/KT/KT) (MB)    (FT/S) (FT/S)
CAPE MAY NJ      0148   51 46  150/  8/ 12 1010.9F
LEWES DE         0148          180/  8/ 11 1010.9F
OCEAN-CITY-INLET 0148          190/  6/  7 1012.0F
WACHAPREAGUE VA  0148   57 56  200/  8/  9 1011.5F
THOMAS POINT MD  0200   50 46  200/ 12/ 14   N/A
GOOSES REEF MD   0200   50 45  170/ 14/ 17 1010.5    1/ 3
COVE POINT MD    0148   52     190/ 18/ 21 1010.7F
SOLOMONS ISLAND  0148          170/ 13/ 15   N/A
BISHOPS HEAD MD  0148   53 54  150/ 12/ 13 1010.9F
PINEY POINT MD   0148          150/  9/  9   N/A
POTOMAC MD       0200   49 46  150/  8/ 10 1009.6    1/ 2
CAMBRIDGE MD     0148   63 44  160/  9/ 14 1009.6F
LEWISETTA VA     0148   61 51  180/ 12/ 16 1010.0F
RAPPAHANNOCK LGT 0148          140/ 16/ 17 1011.4F
YORK RVR RNG VA  0148   54     170/ 15/ 15 1010.1F
YORKTOWN VA      0148   64 49  170/  8/ 11 1010.3F
JAMESTOWN VA     0200   62 53  120/  6/  8   N/A     0
DOMINION TERM VA 0148   60     150/ 10/ 11 1011.0S
KIPTOPEKE VA     0148          160/ 14/ 16   N/A
CHES BAY BRIDGE  0148   60 47  170/ 11/ 12 1010.8F
CAPE HENRY VA    0148   62     160/ 12/ 19   N/A
WILLOUBY STN VA  0148   64     180/ 10/ 11 1011.9R
S CRANEY ISL VA  0148   64     200/  3/  5 1010.9R
CAPE HENRY BUOY  0142      50                N/A     4/10   2/13
OFFSHORE WE BUOY 0151      51                N/A     5/ 9   2/13
64NM E OF VA BCH 0150   57 55   90/  4/  6 1011.8F   6/ 8   7/ 8
DUCK PIER NC     0148   56 49  140/  8/ 10 1010.8F
44100 DUCK FRF   0105      51                N/A     6/11   3/11
44056 DUCK FRF   0130      52                N/A     5/11   2/11
OREGON INLET NC  0142   58 60   80/  4/  5 1011.5F
HATTERAS NC      0148   66 63   70/  3/  4 1010.9F
DIAMOND SHLS NC  0150   71 77  110/ 14/ 17 1010.7S   8/10   7/10
CAPE LOOKOUT NC  0200   65      80/  7/  8 1010.4F
$$



USA.gov is the U.S. government's official web portal to all federal, state and local government web resources and services.